Location: Caltech
(34.1382°N, 118.1253°W)
Time: 20:30:37
(UTC-07:00)

Transit 2A - Visible Passes

Search period start: 29 July 2016 00:00
Search period end: 08 August 2016 00:00
Orbit: 591 x 968 km, 66.7° (Epoch: 29 July)

Date Brightness Start Highest point End Pass type
(mag) Time Alt. Az. Time Alt. Az. Time Alt. Az.
29 Jul 8.0 00:44:32 10° N 00:49:16 27° NE 00:49:16 27° NE visible
29 Jul 8.1 02:27:29 10° NW 02:29:42 22° NW 02:29:42 22° NW visible
30 Jul 8.3 00:11:03 10° N 00:15:34 20° NE 00:15:36 20° NE visible
30 Jul 7.9 01:53:17 10° NNW 01:56:03 27° NW 01:56:03 27° NW visible
30 Jul 8.5 23:37:54 10° NNE 23:41:14 15° NE 23:42:02 14° NE visible
31 Jul 7.8 01:19:15 10° NNW 01:22:30 32° NNW 01:22:30 32° NNW visible
31 Jul 8.8 23:05:48 10° NNE 23:06:50 10° NE 23:07:51 10° NE visible
01 Aug 7.7 00:45:19 10° NNW 00:48:59 35° N 00:48:59 35° N visible
02 Aug 7.7 00:11:32 10° NNW 00:15:32 34° NNE 00:15:32 34° NNE visible
02 Aug 8.7 01:55:27 10° NW 01:56:00 12° NW 01:56:00 12° NW visible
02 Aug 7.8 23:37:51 10° N 23:42:08 28° NE 23:42:08 28° NE visible
03 Aug 8.5 01:20:59 10° NW 01:22:36 18° NW 01:22:36 18° NW visible
03 Aug 8.0 23:04:20 10° N 23:08:46 22° NE 23:08:46 22° NE visible
04 Aug 8.1 00:46:45 10° NW 00:49:15 25° NW 00:49:15 25° NW visible
04 Aug 8.3 22:31:04 10° N 22:34:41 16° NE 22:35:28 15° NE visible
05 Aug 7.8 00:12:39 10° NNW 00:15:56 33° NNW 00:15:56 33° NNW visible
05 Aug 8.5 21:58:31 10° NNE 22:00:18 11° NE 22:02:05 10° ENE visible
05 Aug 7.4 23:38:43 10° NNW 23:42:40 40° N 23:42:40 40° N visible
06 Aug 7.3 23:04:53 10° NNW 23:09:26 40° NNE 23:09:26 40° NNE visible
07 Aug 8.7 00:49:03 10° NW 00:49:55 13° WNW 00:49:55 13° WNW visible
07 Aug 7.4 22:31:11 10° N 22:36:15 32° NE 22:36:15 32° NE visible
